Weather Roundup
Issued by NWS Springfield, MO

Home | Current Version | Previous Version | Text Only | Print | Product List | Glossary On
Versions: 1 2 3 4 5 6 7 8 9 10 11 12 13 14 15 16 17 18 19 20 21 22 23 24 25 26 27 28 29 30 31 32 33 34 35 36 37 38 39 40 41 42 43 44 45 46 47 48 49 50
000
NZUS99 KSGF 251859
HRRSGF

HOURLY WEATHER
NATIONAL WEATHER SERVICE SPRINGFIELD MO
200 PM CDT FRI JUL 25 2014

......SGF CWA......

CITY           SKY/WX    TMP DP  RH WIND       PRES   REMARKS
SPRINGFIELD    MOSUNNY   88  69  53 S13       29.97F HX  92
JOPLIN         SUNNY     91  69  48 S17G24    29.94F HX  96
WEST PLAINS    SUNNY     81  65  58 S9        30.04F
ROLLA          PTSUNNY   86  65  49 S13       29.96F
OSAGE BEACH    PTSUNNY   91  70  49 S12G20    29.93F HX  97
BRANSON        MOSUNNY   91  68  46 S9        30.01S HX  95

......SURROUNDING SGF CWA......

CITY           SKY/WX    TMP DP  RH WIND       PRES   REMARKS
CHANUTE        SUNNY     92  72  51 SW20G28   29.88F HX  99
PARSONS        SUNNY     91  73  55 S13G22    29.91F HX  99
COFFEYVILLE    SUNNY     91  73  55 S16       29.90F HX  99
EMPORIA        SUNNY     97  68  38 S25       29.84F HX 102
SILOAM SPRINGS SUNNY     88  68  51 S12       30.00F HX  91
HARRISON AR    SUNNY     85  72  65 S10       30.02S HX  91
NEAR YELLVILLE MOSUNNY   86  70  58 S5        30.00F HX  90

......KANSAS AND MISSOURI......

CITY           SKY/WX    TMP DP  RH WIND       PRES   REMARKS
KANSAS CTY INT MOSUNNY   93  74  53 S13       29.83F HX 103
DOWNTOWN KC    SUNNY     95  71  45 S14G22    29.82F HX 102
COLUMBIA       PTSUNNY   83  68  60 SE13      29.95F
SEDALIA        MOSUNNY   90  72  55 S12       29.91F HX  97
ST JOSEPH      SUNNY     92  75  57 S16G22    29.79F HX 103
ST LOUIS       LGT RAIN  71  62  73 E8        30.04S
SPIRIT OF STL  CLOUDY    73  62  68 E6        30.03R
KIRKSVILLE     PTSUNNY   72  65  78 SE21G30   29.91F
WICHITA        MOSUNNY   98  65  33 S21G30    29.83F HX 101
TOPEKA         SUNNY    100  68  35 SW10G21   29.80S HX 105
OLATHE         SUNNY     93  70  46 SW17G24   29.85S HX  99

......TENNESSEE......

CITY           SKY/WX    TMP DP  RH WIND       PRES   REMARKS
MEMPHIS        MOSUNNY   85  59  41 NW8       30.04S
NASHVILLE      MOSUNNY   86  55  34 N5        30.04S

......ARKANSAS.......

CITY           SKY/WX    TMP DP  RH WIND       PRES   REMARKS
FAYETTEVILLE   SUNNY     85  70  60 SW13      30.01F
FT SMITH       MOSUNNY   90  73  57 S10       29.97F HX  98
LITTLE ROCK    MOSUNNY   85  65  51 S7        30.03S

......OKLAHOMA.......

CITY           SKY/WX    TMP DP  RH WIND       PRES   REMARKS
TULSA          MOSUNNY   92  72  51 S16       29.90F HX  99
PONCA CITY     SUNNY     95  70  44 S8G20     29.87F HX 101
MCALESTER      SUNNY     89  72  56 S12       29.98F HX  96
OKLAHOMA CITY  MOSUNNY   96  67  38 SW13      29.93F HX 100

......IOWA............

CITY           SKY/WX    TMP DP  RH WIND       PRES   REMARKS
DES MOINES     PTSUNNY   77  65  66 S23G31    29.81F
QUAD CITIES    PTSUNNY   70  64  81 S9G20     29.86S

......ILLINOIS........

CITY           SKY/WX    TMP DP  RH WIND       PRES   REMARKS
QUINCY         CLOUDY    67  62  84 S22       29.93F
CHICAGO        CLOUDY    73  56  54 S14       29.89F



USA.gov is the U.S. government's official web portal to all federal, state and local government web resources and services.